Location: Gokavaram
(16.9752°N, 81.0696°E)
Time: 20:45:15
(UTC+00:00)

Cosmos 1048 Rocket - Pass Details

Date: 15 May 2026
Orbit: 738 x 787 km, 74.0° (Epoch: 8 June)

Event Time Altitude Azimuth Distance (km) Brightness Sun altitude
Exits shadow 23:14:12 11° 212° (SSW) 2,201 5.9 -11.9°
Maximum altitude 23:18:57 47° 285° (WNW) 977 4.2 -10.9°
Drops below altitude 10° 23:23:48 10° 358° (N) 2,243 6.7 -9.8°
Sets 23:26:15 0° 5° (N) 3,170 7.6 -9.3°
